Location: İstanbul
(41.0082°N, 28.9784°E)
Time: 03:09:56
(UTC+03:00)

UWE-3 - Visible Passes

Search period start: 24 April 2024 00:00
Search period end: 04 May 2024 00:00
Orbit: 569 x 656 km, 97.8° (Epoch: 23 April)

Date Brightness Start Highest point End Pass type
(mag) Time Alt. Az. Time Alt. Az. Time Alt. Az.
24 Apr ? 02:51:55 10° NE 02:55:01 25° E 02:55:01 25° E visible
24 Apr ? 04:27:45 10° N 04:31:24 28° WNW 04:32:02 27° W visible
25 Apr ? 03:06:29 10° NNE 03:10:13 36° E 03:10:13 36° E visible
25 Apr ? 04:43:04 10° NNW 04:46:12 20° WNW 04:47:14 18° W visible
26 Apr ? 03:21:10 10° NNE 03:25:23 54° E 03:25:23 54° E visible
26 Apr ? 04:58:38 10° NNW 05:00:57 14° WNW 05:02:24 12° W visible
27 Apr ? 03:35:58 10° NNE 03:40:19 81° ESE 03:40:32 77° SSE visible
27 Apr ? 05:15:19 10° WNW 05:15:38 10° WNW 05:15:58 10° WNW visible
28 Apr ? 02:18:03 10° E 02:18:40 10° E 02:18:40 10° E visible
28 Apr ? 03:50:50 10° N 03:55:09 69° WNW 03:55:40 62° WSW visible
29 Apr ? 02:31:09 10° NE 02:33:46 15° E 02:33:46 15° E visible
29 Apr ? 04:05:46 10° N 04:09:56 47° WNW 04:10:47 41° WSW visible
30 Apr ? 02:45:16 10° NE 02:48:42 22° E 02:48:50 22° E visible
30 Apr ? 04:20:46 10° N 04:24:41 33° WNW 04:25:51 28° WSW visible
01 May ? 02:59:39 10° NNE 03:03:34 32° E 03:03:54 31° ESE visible
01 May ? 04:35:53 10° NNW 04:39:22 24° WNW 04:40:54 20° W visible
02 May ? 03:14:10 10° NNE 03:18:23 46° E 03:18:56 43° ESE visible
02 May ? 04:51:09 10° NNW 04:53:59 17° WNW 04:55:56 13° W visible
03 May ? 03:28:47 10° NNE 03:33:11 68° ESE 03:33:56 56° SSE visible
03 May ? 05:06:46 10° NW 05:08:34 12° WNW 05:10:23 10° W visible
